Terminal Aerodrome Forecast
Issued by NWS

Home | Current Version | Previous Version | Text Only | Print | Product List | Glossary On
Versions: 1 2 3 4 5 6 7 8 9 10 11 12
000
FTUS46 KSGX 230500
TAFTRM
TAF
KTRM 230520Z 2306/2406 32008KT P6SM SCT200
     FM231900 32013G25KT P6SM SCT200
     FM232300 33008KT P6SM SCT200=

USA.gov is the U.S. government's official web portal to all federal, state and local government web resources and services.